Flag for U.S.A. Weather past 2 weeks in Hayward, California, U.S.A.

Now
81 °F

Sunny.


Feels Like: 81 °F
Forecast: 59 / 78 °F
Wind: 12 mph from West

Location: Hayward Air Terminal

Current Time: Aug 27, 2014 at 2:40:53 PM

Latest Report: Aug 27, 2014 at 1:54 PM


Visibility: 10 mi

Pressure: 30.04 "Hg

Humidity: 42%

Dew point: 56 °F

Location of HaywardLocation

Historic Weather in Hayward — Graph

°F

Hayward temperature yesterday

Maximum temperature yesterday: 77 °F (at 1:54 PM)
Minimum temperature yesterday: 62 °F (at 3:54 AM)
Average temperature yesterday: 68 °F

Past Weeks' High & Low Weather Summary

 TemperatureHumidityPressure
High79 °F (Aug 13, 2:54 PM)96% (Aug 14, 5:54 AM)30.09 "Hg (Aug 14, 5:54 AM)
Low59 °F (Aug 14, 10:54 PM)45% (Aug 23, 2:54 PM)29.83 "Hg (Aug 19, 6:54 PM)
Average67 °F75%29.96 "Hg
* Reported Aug 12 12:54 PM — Aug 27 12:54 PM, Hayward, Weather by CustomWeather, © 2014

Note: Actual official high and low records may vary slightly from our data, if they occured in-between our weather recording intervals... More about our weather records

Advertising

Hayward weather history for previous 24 hours

 ConditionsComfort  
Time TempWeatherWind HumidityBarometerVisibility
12:54 PM
Aug 27
79 °FSunny.8 mph48%30.06 "Hg10 mi
11:54 AM76 °FSunny.7 mph58%30.08 "Hg10 mi
10:54 AM73 °FSunny.6 mph69%30.09 "Hg10 mi
9:54 AM71 °FSunny.6 mph73%30.09 "Hg10 mi
8:54 AM68 °FSunny.No wind78%30.09 "Hg10 mi
7:54 AM65 °FSunny.3 mph81%30.08 "Hg10 mi
6:54 AM62 °FClear.5 mph83%30.07 "Hg10 mi
5:54 AM63 °FClear.3 mph84%30.06 "Hg10 mi
4:54 AM63 °FClear.3 mph84%30.04 "Hg10 mi
3:54 AM63 °FClear.5 mph84%30.04 "Hg10 mi
2:54 AM64 °FClear.3 mph81%30.04 "Hg10 mi
1:54 AM65 °FClear.No wind81%30.03 "Hg10 mi
12:54 AM65 °FClear.3 mph85%30.03 "Hg10 mi
11:54 PM
Aug 26
65 °FClear.No wind85%30.03 "Hg10 mi
10:54 PM66 °FClear.5 mph81%30.03 "Hg10 mi
9:54 PM66 °FClear.5 mph81%30.02 "Hg10 mi
8:54 PM67 °FClear.7 mph79%30.01 "Hg10 mi
7:54 PM68 °FSunny.8 mph73%29.99 "Hg10 mi
6:54 PM71 °FSunny.12 mph61%29.97 "Hg10 mi
5:54 PM74 °FSunny.12 mph53%29.97 "Hg10 mi
4:54 PM75 °FSunny.13 mph52%29.97 "Hg10 mi
3:54 PM77 °FSunny.14 mph48%29.97 "Hg10 mi
2:54 PM77 °FSunny.17 mph48%29.98 "Hg10 mi
Weather by CustomWeather, © 2014

See weather overviewHow to use our weather pages